Location: ????????
(54.9045°N, 39.1041°E)
Time: 03:54:56
(UTC+00:00)

Cosmos 2026 Rocket - Visible Passes

Search period start: 18 July 2024 00:00
Search period end: 28 July 2024 00:00
Orbit: 938 x 1000 km, 82.9° (Epoch: 17 July)

Date Brightness Start Highest point End Pass type
(mag) Time Alt. Az. Time Alt. Az. Time Alt. Az.
18 Jul 6.3 22:28:06 10° N 22:32:45 21° NE 22:37:25 10° ESE visible
19 Jul 4.2 00:12:45 10° N 00:19:03 81° E 00:25:24 10° SSE visible
19 Jul 5.8 22:51:19 10° N 22:56:48 30° ENE 23:02:18 10° ESE visible
20 Jul 6.7 21:31:03 10° NNE 21:33:35 12° NE 21:36:08 10° ENE visible
20 Jul 5.1 23:14:40 10° N 23:20:41 45° ENE 23:26:43 10° SE visible
21 Jul 6.4 21:53:42 10° N 21:57:53 18° NE 22:02:03 10° E visible
21 Jul 4.4 23:38:09 10° N 23:44:25 68° ENE 23:50:44 10° SSE visible
22 Jul 6.0 22:16:49 10° N 22:21:59 26° ENE 22:27:10 10° ESE visible
23 Jul 4.1 00:01:42 10° NNW 00:08:01 82° W 00:14:22 10° S visible
23 Jul 6.8 20:57:24 10° NNE 20:58:36 10° NE 20:59:48 10° NE visible
23 Jul 5.4 22:40:07 10° N 22:45:57 38° ENE 22:51:47 10° SE visible
24 Jul 4.3 00:25:22 10° NNW 00:31:28 54° W 00:37:37 10° SSW visible
24 Jul 6.4 21:19:23 10° NNE 21:22:57 15° NE 21:26:32 10° E visible
24 Jul 4.7 23:03:32 10° N 23:09:45 56° ENE 23:15:59 10° SSE visible
25 Jul 6.1 21:42:21 10° N 21:47:09 22° NE 21:51:57 10° ESE visible
25 Jul 4.1 23:27:03 10° N 23:33:25 84° E 23:39:48 10° SSE visible
26 Jul 5.6 22:05:35 10° N 22:11:10 32° ENE 22:16:47 10° SE visible
26 Jul 4.1 23:50:41 10° NNW 23:56:55 66° W 00:03:13 10° S visible
27 Jul 6.5 20:45:11 10° NNE 20:47:59 13° NE 20:50:49 10° ENE visible
27 Jul 4.9 22:28:58 10° N 22:35:03 47° ENE 22:41:09 10° SE visible
